Terug naar catalogus

SJ-29A

ActiefWetenschapGEO
NORAD 67302·PAYLOAD·🇨🇳 China

Gelanceerd Dec 30, 2025 vanaf Wenchang Space Launch Site

Loading…

TLE

VersSource: Space-Track

Epoch: Sep 14, 2026, 17:34 UTC

1 67302U 25315A   26257.73228741 -.00000078  00000-0  00000+0 0  9995
2 67302   3.6193  92.9382 0006043  75.4452 162.4416  1.00274046  2511

Volg SJ-29A in realtime met AllMySat

Download on the App Store